RH
68 64 61 60 58 59 59 58 56 55 53 50 49 46 43 41 39 38 38 39 39 38 35 34 38 41 42 42 42 42 43 44 44 44 45 45 46 47 46 47 49 50 49 46 44 43 43 44 47 49 51 57 55 53 54 53 52 51 51 52 52 54 58 60 61 60 56 53 53 57 58 61 62 57 56 54 42 27 27 30 31 36 40 42 44
64 62 59 57 56 57 57 57 56 54 50 46 46 45 43 39 37 38 38 38 37 35 35 38 43 45 45 44 44 44 46 46 46 45 45 45 46 48 47 48 50 50 52 50 47 45 44 43 45 47 49 53 51 52 53 50 51 50 51 51 52 56 61 62 62 62 57 54 57 59 59 59 59 57 55 52 40 27 30 35 38 45 45 44 46
62 60 56 54 54 55 54 53 53 51 47 45 44 43 42 39 37 38 38 38 38 38 40 45 48 48 48 47 46 47 50 49 48 48 48 46 48 51 47 46 47 49 51 50 48 48 48 46 48 50 52 52 49 53 51 48 50 50 52 51 54 59 62 63 63 63 58 57 60 62 60 60 59 56 54 49 37 26 31 36 40 45 44 45 47
60 58 55 53 52 51 51 51 51 48 46 44 43 43 42 40 40 41 40 40 41 44 47 49 49 49 50 49 50 51 53 52 52 53 53 54 56 56 50 48 48 48 49 48 48 48 50 51 53 54 54 53 50 53 53 51 51 51 52 54 59 61 62 62 65 63 59 62 62 62 63 62 59 54 51 45 33 28 33 37 39 41 42 47 49
58 56 55 53 50 48 48 49 49 48 46 45 44 43 42 41 41 41 41 43 47 50 51 51 51 52 54 54 54 54 54 54 55 56 59 61 58 55 53 53 52 52 50 48 47 47 49 52 54 54 53 53 52 53 53 53 53 53 54 57 62 62 62 63 65 61 60 63 61 62 63 60 55 50 48 41 33 30 34 37 38 40 43 47 48
55 54 54 52 48 46 47 47 46 46 45 44 44 41 41 41 42 42 44 47 50 52 52 54 56 58 60 60 58 56 55 56 58 60 63 64 58 55 55 57 57 56 55 52 50 48 47 49 51 54 54 53 52 53 54 55 55 54 56 60 62 61 62 63 63 60 59 60 59 61 59 58 54 51 48 39 34 34 34 37 38 40 44 46 48
52 52 54 51 48 46 46 46 43 43 44 43 42 41 41 41 42 43 45 49 51 53 56 59 61 63 63 62 62 60 59 58 59 64 68 66 61 60 61 62 60 58 58 58 57 53 50 50 53 57 57 56 56 58 59 60 58 56 58 62 62 62 61 62 63 61 60 62 62 61 57 56 51 45 43 38 36 35 34 36 38 40 44 46 50
51 53 54 51 49 48 45 44 42 42 42 41 40 40 40 40 41 41 45 49 51 53 57 60 62 64 65 64 63 62 61 59 61 67 72 68 63 62 65 65 63 62 63 64 63 61 59 58 60 62 62 62 63 63 64 63 60 58 59 62 62 62 61 61 61 60 63 66 64 60 56 50 43 39 39 39 38 36 34 35 36 37 43 49 52
51 54 54 51 49 49 45 43 42 41 41 40 40 39 39 39 38 41 47 51 51 53 56 59 62 65 66 65 63 61 61 63 64 69 72 68 64 64 67 67 66 65 66 66 66 67 65 65 66 66 64 64 66 65 64 63 60 60 61 63 62 61 60 59 59 59 62 63 59 54 51 46 43 42 40 41 39 37 36 39 39 36 44 51 51
51 54 55 54 49 47 44 42 41 41 40 39 38 39 40 39 39 46 52 52 50 51 54 58 61 64 66 65 62 62 64 66 67 70 72 69 66 65 68 68 67 66 67 67 66 67 67 67 67 66 64 64 66 66 66 65 63 63 63 64 63 60 58 60 61 60 61 55 46 43 43 43 45 43 42 43 40 36 35 39 40 37 43 49 47
52 54 55 56 51 46 44 42 42 41 39 38 38 40 41 39 43 51 52 50 51 51 54 58 61 64 65 63 64 65 67 68 68 70 72 70 68 66 66 67 66 66 65 64 64 66 66 65 64 64 65 66 68 68 68 67 66 66 66 65 61 58 58 62 63 61 54 42 35 36 39 43 45 44 44 43 40 37 34 34 37 38 40 43 45
53 55 54 51 49 46 44 43 41 40 38 38 39 40 40 42 49 53 50 47 49 51 54 57 58 61 62 62 64 67 68 69 69 70 71 72 70 66 64 63 62 62 60 61 63 64 65 65 64 66 67 69 69 68 68 67 67 67 65 63 58 57 59 61 60 54 42 35 38 42 44 47 46 44 44 42 41 39 36 35 36 38 38 38 42
55 54 52 50 49 45 42 41 40 39 39 41 41 41 42 46 50 49 46 45 45 49 54 55 56 57 59 62 64 67 67 68 70 66 68 70 68 64 61 59 58 58 58 62 65 67 68 67 66 68 69 68 67 67 67 66 65 65 62 60 56 56 58 57 53 42 34 40 46 47 47 47 45 43 43 42 41 40 39 38 37 36 35 37 40
57 52 50 52 49 41 38 40 39 40 41 43 42 45 47 46 46 45 46 48 48 51 54 53 53 55 58 62 65 67 66 67 68 63 65 67 64 62 59 57 56 58 61 63 67 68 68 66 65 67 66 63 62 64 64 64 63 62 60 55 53 55 56 53 46 35 36 46 48 46 45 43 43 43 42 41 41 40 41 41 37 33 33 34 36
57 56 52 47 42 37 40 40 40 42 43 45 47 49 49 45 45 45 46 50 53 53 53 52 52 56 58 62 65 66 65 66 66 62 62 62 59 58 56 56 59 63 66 67 68 67 65 63 64 64 63 60 59 59 59 61 61 57 54 50 51 53 53 50 39 32 40 48 46 43 43 43 44 43 42 41 41 42 43 41 36 33 31 31 32
52 54 49 42 39 42 44 42 42 43 43 50 51 51 48 46 43 42 45 47 51 51 50 51 52 57 60 62 65 64 63 64 64 60 59 57 54 54 54 56 61 68 68 67 66 64 62 60 62 64 62 61 60 58 56 57 56 51 48 48 52 52 49 44 34 35 46 47 44 43 45 46 45 45 45 44 44 45 43 39 35 33 31 30 30
48 49 46 44 46 47 47 43 42 42 46 53 53 53 49 44 41 41 45 44 45 48 50 53 55 58 60 62 62 61 61 62 61 58 56 55 53 52 54 57 61 66 66 65 63 61 61 60 60 61 59 57 55 53 52 52 51 48 48 48 50 46 39 36 36 41 46 44 43 45 48 47 46 48 48 47 49 49 45 40 37 32 30 30 30
47 47 48 50 52 53 49 43 44 46 50 54 55 56 50 41 39 39 42 42 43 48 51 53 57 60 60 61 61 60 61 62 58 55 55 55 55 53 53 56 58 61 62 60 59 59 60 58 57 55 52 52 49 48 48 48 48 46 46 45 42 36 31 34 40 43 44 43 44 46 48 46 46 49 50 52 53 49 45 43 41 34 29 30 30
46 48 51 52 54 54 47 44 52 55 53 55 58 58 49 39 39 39 39 38 42 48 50 52 56 58 60 60 61 62 63 63 59 54 53 54 55 56 55 56 57 60 60 57 55 56 57 55 52 49 48 48 47 47 47 47 47 45 42 41 39 35 36 40 43 46 48 47 45 46 48 46 47 51 52 54 51 48 45 44 43 37 30 29 30
46 49 51 51 53 51 45 47 55 57 55 57 61 55 44 38 36 36 36 36 42 50 52 54 54 56 59 60 60 62 64 65 61 57 52 51 52 53 54 56 57 59 59 57 55 55 54 52 50 47 46 46 46 47 47 47 45 43 41 41 43 45 46 46 46 49 49 48 46 47 48 49 51 54 54 53 49 45 43 43 43 37 32 31 30
45 48 50 51 51 46 43 47 50 52 54 54 56 50 43 43 38 32 34 38 45 52 53 53 53 53 57 59 60 61 64 65 63 60 55 50 49 50 52 55 58 59 59 59 57 55 53 51 49 48 47 47 46 46 46 45 43 43 43 45 50 52 50 50 51 50 48 48 48 49 51 52 54 54 53 50 46 43 41 43 41 36 33 32 31
44 46 47 49 48 43 44 47 47 48 51 50 52 52 49 45 40 35 38 44 48 51 51 50 49 50 53 57 59 61 64 64 62 61 57 53 49 49 51 54 58 58 58 59 58 55 53 53 51 50 49 48 48 47 44 42 42 43 45 49 53 52 51 52 53 53 52 51 48 51 54 54 54 52 50 48 44 41 40 40 39 34 32 32 32
42 43 44 48 44 43 47 49 47 45 48 49 48 52 50 44 45 47 45 43 44 45 45 44 45 47 50 54 58 60 62 61 61 60 59 57 52 48 51 53 56 59 57 56 57 53 50 50 50 49 50 49 49 48 46 45 46 47 50 53 53 51 51 53 55 54 55 54 51 53 56 56 55 50 48 46 42 41 40 39 37 32 32 33 34
43 43 45 46 40 43 48 49 47 44 47 48 47 49 50 48 51 53 46 40 40 40 41 42 42 45 49 54 56 58 58 58 59 59 57 57 55 51 52 54 56 58 53 50 50 46 43 42 42 45 48 48 50 51 51 52 53 54 55 54 53 51 52 53 55 54 54 56 54 53 55 55 52 48 46 43 41 42 40 37 35 33 33 34 34
41 43 46 43 38 44 47 46 47 45 46 46 48 50 52 54 53 53 49 41 40 40 41 41 41 44 50 54 54 53 54 56 58 59 59 59 58 54 53 55 58 56 49 43 43 42 41 40 39 42 45 46 47 49 50 51 51 51 50 49 48 49 51 50 52 52 51 52 50 50 51 51 49 45 41 40 41 41 37 35 34 33 34 35 34
41 43 44 40 40 46 46 47 48 46 45 45 48 50 53 58 56 54 52 46 44 43 43 43 43 43 47 50 49 50 52 54 54 57 61 60 61 60 56 56 57 54 47 44 44 43 43 43 42 43 45 44 41 40 43 44 45 45 44 44 45 47 48 47 47 48 45 40 39 42 44 45 44 40 38 40 41 38 35 34 33 34 36 37 34
39 41 42 40 43 46 46 48 49 46 43 42 46 49 54 59 57 55 53 49 47 47 47 47 46 45 45 48 50 50 52 53 52 53 57 57 57 60 61 61 59 55 52 51 51 51 50 49 48 47 47 47 41 38 39 39 41 43 41 40 44 45 44 43 41 41 38 32 30 34 38 38 37 36 36 38 37 36 34 34 34 37 37 34 29
37 39 41 41 44 46 46 49 49 45 40 39 44 49 54 57 54 53 52 49 49 51 48 46 47 47 46 47 49 50 49 51 49 49 52 52 52 53 58 63 62 60 59 57 56 57 57 55 54 53 52 52 49 46 44 42 42 45 43 40 41 39 40 41 37 37 38 34 29 28 30 31 31 33 34 35 34 33 34 35 36 35 31 27 24
34 37 40 42 45 44 44 47 47 42 38 38 43 49 53 55 55 53 50 50 53 52 48 48 48 47 45 44 47 50 49 48 47 46 46 46 50 52 54 58 59 60 60 59 58 58 58 57 57 56 56 55 54 51 48 47 46 47 46 43 42 38 37 37 34 35 37 34 30 25 25 26 28 30 31 31 32 33 34 34 32 29 25 24 25
33 36 39 42 44 43 43 44 44 40 38 39 41 47 52 53 53 51 49 52 54 50 51 54 52 49 47 45 47 51 53 51 47 46 43 43 48 52 52 52 55 57 57 57 57 57 57 57 58 56 55 55 53 52 50 49 47 46 46 44 43 40 36 34 33 35 36 34 32 26 25 26 26 28 28 29 31 32 31 29 27 24 23 25 27
33 36 38 41 41 42 44 43 42 39 38 39 37 43 51 50 50 50 50 52 51 51 56 58 56 53 48 46 46 50 55 53 48 48 48 48 50 53 53 52 53 54 54 55 56 57 56 56 56 54 53 53 52 52 50 48 46 45 44 43 42 40 37 36 36 37 36 34 33 30 29 29 29 29 29 30 30 29 28 26 24 22 24 27 28
32 35 38 40 39 42 44 40 41 39 37 39 36 39 49 50 49 51 52 52 51 54 58 58 57 53 49 49 48 50 52 50 48 51 53 53 53 54 56 56 56 56 55 54 54 55 55 53 52 51 51 52 51 50 49 47 46 44 43 42 41 40 38 38 38 37 35 33 33 36 36 32 30 29 29 30 29 28 26 24 23 24 27 28 28
31 35 38 40 41 43 41 37 39 39 36 39 37 37 47 49 49 51 52 53 54 56 58 56 55 52 51 52 51 52 51 49 49 52 54 55 56 56 57 58 59 60 57 53 53 55 55 53 52 52 51 52 50 49 49 47 45 45 45 43 41 40 39 38 38 38 38 37 36 37 38 36 33 29 28 28 28 27 25 24 25 26 27 28 29
30 35 36 39 42 41 39 36 37 39 38 39 37 36 44 48 49 51 51 54 58 59 59 56 55 55 54 53 53 53 52 52 51 53 56 55 55 56 57 58 58 59 58 56 57 56 55 55 55 54 53 53 50 48 48 45 44 44 44 43 41 40 40 40 39 39 41 41 39 38 38 36 35 33 31 29 27 26 25 26 26 27 27 28 29
31 34 35 37 40 38 38 37 33 36 39 39 37 35 41 46 48 50 51 56 61 61 60 57 56 59 58 55 54 54 53 53 51 52 56 56 54 54 56 56 55 56 57 56 58 57 54 54 54 55 53 51 49 48 47 45 43 42 41 41 40 39 40 40 41 41 42 42 41 38 37 36 36 35 35 34 31 27 27 28 28 28 28 30 31
30 34 35 36 38 37 36 37 32 32 37 39 39 36 39 44 45 48 50 55 62 63 62 59 58 60 60 57 55 56 55 54 51 51 55 56 54 52 53 52 51 54 53 52 57 57 54 51 51 53 53 50 48 48 45 43 41 39 39 41 40 39 40 41 42 43 42 43 43 41 38 37 35 35 35 35 34 29 27 27 27 28 30 32 33
31 33 35 35 39 37 33 37 33 31 35 37 39 37 39 42 43 47 49 53 60 62 62 61 60 59 59 59 57 56 55 53 52 51 54 56 55 53 50 47 49 52 50 51 55 54 53 51 48 49 52 52 51 49 46 45 42 40 40 40 40 41 41 41 41 41 42 41 43 43 41 38 35 34 35 35 34 31 27 26 27 29 31 32 33
33 33 34 34 40 38 32 37 36 33 34 35 39 39 38 41 42 45 46 49 57 60 60 61 60 59 59 59 57 56 54 52 52 51 53 55 55 54 50 45 45 45 44 48 51 50 51 51 48 46 49 52 53 52 50 49 49 47 44 40 39 41 40 39 38 39 42 42 41 41 41 40 38 35 34 33 35 32 28 28 29 30 31 31 32
36 34 33 32 39 41 34 33 33 34 35 35 38 38 38 41 43 45 43 46 53 56 58 59 59 60 59 56 55 56 54 53 53 50 51 54 55 54 48 43 42 41 41 45 48 47 47 47 47 44 44 48 51 50 50 50 51 50 47 41 38 39 38 37 38 40 41 40 40 41 39 38 37 34 31 33 34 33 29 28 30 31 31 31 31
38 36 32 29 34 40 36 30 31 33 34 36 39 38 38 41 45 46 43 45 49 51 54 56 58 59 59 55 55 57 56 54 54 51 49 51 53 52 47 43 42 41 41 44 46 46 43 42 42 41 41 44 44 44 47 51 50 46 45 42 38 37 36 39 44 43 40 39 38 39 38 35 34 32 32 35 35 33 30 26 28 32 33 33 33
39 35 31 29 29 35 36 32 32 32 31 35 40 41 40 42 46 47 45 46 47 48 51 55 59 59 56 55 55 56 56 54 53 53 51 49 50 49 46 44 44 42 41 41 42 41 41 41 40 38 41 44 43 44 47 49 46 43 44 42 39 39 39 42 45 41 40 41 38 37 36 32 30 31 32 33 32 33 33 29 31 34 34 34 37
39 34 31 30 28 32 36 35 34 32 31 35 39 42 44 44 47 48 49 49 46 48 52 56 60 59 53 53 55 55 54 53 52 53 53 52 52 49 46 44 43 42 41 39 38 38 40 40 39 39 41 42 44 45 44 44 44 43 45 42 39 42 43 43 41 39 42 42 37 35 34 30 28 30 32 33 32 34 36 36 36 38 36 36 39
40 36 31 30 28 30 34 35 36 35 33 35 37 40 42 43 46 49 51 51 47 49 54 57 59 59 55 53 53 53 52 52 52 52 53 54 53 50 49 46 43 42 41 39 37 37 39 39 41 43 42 41 42 41 40 44 45 42 43 42 41 43 43 41 37 37 40 39 37 33 29 28 28 29 33 35 35 35 37 38 38 38 37 37 39
39 37 34 32 29 28 30 33 36 36 34 34 36 39 40 40 42 44 46 48 49 50 52 54 54 57 57 54 51 51 51 52 51 51 52 53 51 49 50 47 44 44 43 41 38 37 39 39 42 43 42 43 45 41 39 43 44 44 44 42 41 42 41 38 34 35 38 36 36 31 25 27 28 30 34 34 35 35 37 40 40 39 39 38 38
39 38 35 33 32 29 28 31 33 34 34 34 35 36 39 40 41 40 40 43 45 47 50 54 54 53 56 56 53 51 51 51 49 50 51 51 49 47 47 46 45 45 43 42 40 38 40 41 42 41 41 45 47 44 41 42 42 43 45 43 44 45 41 39 36 38 41 37 32 27 23 26 28 30 34 33 33 35 37 40 41 40 39 40 39
39 39 37 35 33 30 28 29 32 32 32 35 35 35 36 39 39 38 39 39 40 45 50 55 56 53 55 58 55 52 51 50 48 49 49 48 46 44 43 44 45 44 43 43 41 39 41 43 43 44 44 43 44 45 44 44 41 39 41 44 46 46 43 44 40 35 36 34 32 30 25 25 28 30 32 32 32 34 36 39 41 43 42 42 40
40 39 39 38 34 31 28 28 31 30 31 34 36 35 34 36 37 36 40 41 41 45 49 53 56 55 56 58 56 53 50 48 48 46 46 46 44 44 44 44 44 43 42 41 40 42 44 44 44 46 45 40 40 45 45 43 42 39 39 41 42 43 44 44 41 35 31 30 34 36 29 25 26 29 30 29 31 33 36 39 41 45 47 43 38
40 39 39 39 35 31 30 29 29 29 30 32 34 35 34 34 34 35 40 43 44 46 46 50 55 55 55 57 57 54 48 46 47 45 44 45 45 45 45 44 43 41 40 41 41 43 44 42 42 43 43 39 38 43 46 44 43 41 43 43 41 41 40 39 38 36 32 29 30 33 29 26 26 28 29 28 30 33 36 38 42 47 49 44 36
41 40 39 39 36 32 32 31 29 29 30 31 33 34 34 33 32 33 37 40 43 47 47 48 52 51 52 55 54 53 49 46 47 45 45 45 45 45 44 43 44 41 41 43 43 40 38 38 39 39 40 40 38 41 44 44 44 44 44 44 42 40 37 35 33 32 32 31 30 30 27 26 27 28 29 29 31 34 35 39 45 48 49 46 39
43 41 40 40 37 32 32 33 31 30 30 31 31 33 34 33 31 31 33 35 39 44 47 48 48 48 50 50 49 50 50 50 48 45 44 44 44 44 43 43 45 43 43 45 43 38 36 35 36 37 37 39 39 40 41 42 44 45 44 42 41 43 40 36 32 30 31 30 30 33 31 28 30 29 29 31 32 34 37 42 47 47 49 48 41
45 43 42 41 38 34 32 33 33 31 30 31 31 31 33 33 31 30 31 33 37 40 43 45 46 45 46 48 49 48 49 52 51 47 43 44 44 44 44 44 44 43 41 42 42 41 39 37 35 36 37 38 38 38 40 41 41 43 44 41 38 42 42 37 34 31 31 28 29 38 36 29 31 29 29 32 33 35 40 44 46 48 49 47 40